[[{"header":{"parameterUnit":"m.s-1","parameterCategory":1,"la1":30.2991,"la2":30.254,"lo1":-89.0895,"lo2":-89.0444,"dy":0.0017,"dx":0.0017,"nx":28,"ny":28,"refTime":"2023-08-14T09:00:00:Z","depth":0,"parameterNumber":2,"parameterNumberName":"U-component_of_WINDS"},"data":[0,0,0,0,0,0,0,0,0,0,0,0,0,0,0,0,0,0,0,0,0,0,0,0,0,0,0,0,0,0,0,0,0,0,0,0,0,0,0,0,0,0,0,0,0,0,0,0,0,0,0,0,0,0,0,0,0,0,3.7862,3.7862,0,3.7909,3.7909,3.791,3.7823,3.782,3.7817,3.7814,3.7862,3.7866,3.787,0,0,0,0,0,0,0,0,0,0,0,0,0,3.7695,3.7698,3.7862,3.7862,3.7863,3.7908,3.7909,3.791,3.7823,3.782,3.7816,3.7813,3.7861,3.7865,3.787,0,0,0,0,0,0,0,0,0,0,0,0,0,3.7757,3.7699,3.7862,3.7825,3.7822,3.7908,3.7909,3.791,3.7824,3.782,3.7816,3.7812,3.7859,3.7865,3.7871,3.7994,0,0,3.7889,3.7891,0,0,0,0,0,0,0,0,3.7754,3.7763,3.783,3.7828,3.7825,3.7855,3.7867,3.7938,3.7825,3.7824,3.7814,3.7809,3.7863,3.7868,3.7887,3.7996,3.7998,3.7889,3.7893,3.7895,3.7897,0,0,0,0,0,0,0,3.7749,3.7761,3.788,3.7831,3.7828,3.7806,3.781,3.788,3.7867,3.7823,3.7817,3.7824,3.7861,3.7881,3.7887,3.7999,3.7889,3.7894,3.7898,3.79,3.8207,3.8212,0,0,0,0,0,0,3.775,3.7758,3.7879,3.7881,3.7778,3.7812,3.7817,3.785,3.7866,3.7864,3.7828,3.782,3.7873,3.788,3.7889,3.8031,3.7895,3.7901,3.7904,3.8203,3.8208,3.8213,0,0,0,0,0,0,3.7747,3.7762,3.7877,3.7818,3.7831,3.782,3.7858,3.7853,3.7873,3.7869,3.7866,3.7851,3.787,3.788,3.7967,3.8031,3.7903,3.7909,3.8197,3.8204,3.8211,3.8318,0,0,0,0,0,0,3.7742,3.7761,3.7808,3.782,3.7834,3.7956,3.7862,3.7857,3.7884,3.7874,3.789,3.7889,3.7868,3.7959,3.7973,3.8037,3.7913,3.8191,3.82,3.8209,3.8309,3.8328,3.8344,0,0,0,0,0,3.7737,3.7837,3.7811,3.7826,3.7894,3.796,3.7968,3.7942,3.789,3.7936,3.7933,3.7888,3.8023,3.7969,3.7984,3.805,3.8187,3.8198,3.8208,3.8301,3.8324,3.8343,0,0,0,0,0,0,3.7834,3.7838,3.7809,3.7917,3.7938,3.7945,3.8003,3.7968,3.8005,3.7994,3.7959,3.7964,3.8057,3.8063,3.8003,3.8169,3.8096,3.811,3.8161,3.8183,3.8201,3.8196,3.7918,0,0,0,0,0,3.7868,3.7922,3.7922,3.8017,3.8029,3.8015,3.8043,3.802,3.8041,3.805,3.8053,3.8075,3.8122,3.8153,3.8196,3.831,3.831,3.8363,3.8381,3.8395,3.8407,3.8464,3.8486,3.8247,3.8247,3.8247,0,0,3.7938,3.7947,3.7984,3.8037,3.8051,3.8106,3.8023,3.8086,3.8126,3.806,3.8141,3.8145,3.8166,3.8266,3.8311,3.8274,3.8473,3.8408,3.842,3.8423,3.8477,3.8499,3.8519,3.8254,3.8253,3.8252,0,0,3.8094,3.8108,3.8186,3.8202,3.8224,3.8214,3.8233,3.8245,3.8244,3.8326,3.8276,3.8323,3.8405,3.8422,3.8441,3.8602,3.856,3.8617,3.8708,3.8764,3.8783,3.8799,3.8853,3.8874,3.8629,3.8629,3.8629,0,3.8179,3.826,3.8231,3.8297,3.832,3.8263,3.8341,3.8358,3.8393,3.841,3.8369,3.8469,3.848,3.8581,3.862,3.8639,3.8657,3.8614,3.8783,3.8799,3.8814,3.8865,3.8886,3.8636,3.8635,3.8634,3.8634,0,3.8362,3.8419,3.848,3.8514,3.8545,3.8617,3.8597,3.8632,3.8607,3.8601,3.8683,3.8694,3.8736,3.8759,3.8736,3.8857,3.8833,3.8789,3.8714,3.8843,3.889,3.891,3.8645,3.8643,3.8641,3.8639,0,0,3.8579,3.8596,3.8618,3.8632,3.8652,3.8695,3.8764,3.8805,3.8834,3.8861,3.8915,3.8985,3.8943,3.8965,3.8943,3.8993,3.9115,3.8941,3.8941,3.897,3.9245,3.9276,3.93,3.9089,3.9093,3.9096,3.9242,0,3.8731,3.8848,3.8823,3.8938,3.8989,3.8935,3.8994,3.9012,3.9007,3.9049,3.9044,3.9093,3.9035,3.9047,3.9094,3.909,3.9169,3.908,3.9137,3.9139,3.913,3.9325,3.9359,3.9496,3.926,3.9264,3.9266,0,3.8924,3.8956,3.9076,3.9085,3.9106,3.9159,3.9193,3.9235,3.9254,3.9247,3.9271,3.9239,3.9304,3.9232,3.932,3.926,3.9282,3.9284,3.9288,3.929,3.9208,3.9329,3.954,3.9559,3.9295,3.9293,3.9291,0,3.9066,3.914,3.922,3.9234,3.9248,3.9286,3.9294,3.9308,3.9334,3.9364,3.938,3.9419,3.9439,3.9468,3.9447,3.9396,3.9538,3.9464,3.9532,3.9532,3.9562,3.956,3.9776,3.9582,3.9582,3.9582,3.9581,0,3.9237,3.9311,3.9284,3.9333,3.9414,3.9385,3.9465,3.9466,3.9479,3.9526,3.9483,3.9528,3.9498,3.954,3.9524,3.9598,3.9609,3.9603,3.9598,3.9606,3.9606,3.9617,3.9606,3.9587,3.9586,3.9585,3.9584,0,3.9408,3.9394,3.9476,3.9482,3.9486,3.9545,3.9549,3.9594,3.9586,3.9646,3.9658,3.9646,3.9693,3.9675,3.9726,3.9715,3.9809,3.9792,3.9802,3.9797,3.9864,3.9857,4.0093,4.0121,3.9912,3.9914,3.9916,0,3.9516,3.9572,3.9583,3.9612,3.9622,3.9669,3.9694,3.9667,3.9696,3.972,3.9761,3.9805,3.9838,3.9915,3.991,3.9948,3.993,4.001,3.9935,3.994,3.9927,3.9923,3.9926,4.0024,4.0027,4.0029,4.003,0,3.9709,3.9698,3.9737,3.9773,3.9804,3.9831,3.9854,3.988,3.9854,3.9888,3.9935,3.9961,4.0012,4.0054,4.0088,4.0094,4.0057,4.0054,4.0071,4.0078,4.008,4.0076,3.9839,4.0048,4.0046,4.0045,4.0044,4.0043,3.9849,3.9895,3.9909,3.9953,3.9968,3.999,4.0031,4.0028,4.0067,4.0106,4.0088,4.0142,4.0157,4.0198,4.021,4.0251,4.0219,4.0245,4.0251,4.0257,4.0264,4.0077,4.0258,4.0257,4.0256,4.0256,4.0256,0,4.0036,4.0042,4.0083,4.0116,4.015,4.0113,4.0137,4.0167,4.0215,4.0233,4.0266,4.0319,4.036,4.0358,4.0395,4.0428,4.0412,4.0439,4.0434,4.0435,4.0292,4.0272,4.0451,4.0451,4.0451,4.0451,4.0451,4.0451,4.0137,4.0211,4.0202,4.0282,4.0288,4.0341,4.0356,4.0376,4.0389,4.0451,4.0484,4.0483,4.0492,4.0529,4.0564,4.0562,4.0576,4.0609,4.0601,4.0466,4.0446,4.0428,4.0408,4.0613,4.0613,4.074,4.0741,4.0742]},{"header":{"parameterUnit":"m.s-1","parameterCategory":1,"la1":30.2991,"la2":30.254,"lo1":-89.0895,"lo2":-89.0444,"dy":0.0017,"dx":0.0017,"nx":28,"ny":28,"refTime":"2023-08-14T09:00:00:Z","depth":0,"parameterNumber":3,"parameterNumberName":"V-component_of_WINDS"},"data":[0,0,0,0,0,0,0,0,0,0,0,0,0,0,0,0,0,0,0,0,0,0,0,0,0,0,0,0,0,0,0,0,0,0,0,0,0,0,0,0,0,0,0,0,0,0,0,0,0,0,0,0,0,0,0,0,0,0,3.9302,3.9304,0,3.9499,3.9501,3.9503,3.9528,3.9527,3.9525,3.9523,3.9721,3.9727,3.9734,0,0,0,0,0,0,0,0,0,0,0,0,0,3.8944,3.895,3.9302,3.9304,3.9307,3.9498,3.9501,3.9504,3.9529,3.9526,3.9524,3.9522,3.9718,3.9726,3.9735,0,0,0,0,0,0,0,0,0,0,0,0,0,3.9116,3.8952,3.9302,3.9343,3.9348,3.9498,3.9501,3.9504,3.9529,3.9526,3.9524,3.9521,3.9715,3.9726,3.9736,3.9857,0,0,3.9768,3.9773,0,0,0,0,0,0,0,0,3.9106,3.9129,3.9334,3.934,3.9347,3.9486,3.9447,3.9623,3.953,3.946,3.9523,3.952,3.9645,3.9661,3.9704,3.9867,3.9875,3.9769,3.9775,3.978,3.9783,0,0,0,0,0,0,0,3.9094,3.9121,3.938,3.9337,3.9345,3.935,3.9371,3.9481,3.9566,3.9466,3.9469,3.9492,3.9647,3.9694,3.9709,3.9878,3.9769,3.9778,3.9785,3.9789,4.0148,4.0151,0,0,0,0,0,0,3.9075,3.911,3.9373,3.9386,3.9217,3.9358,3.9382,3.9444,3.9565,3.958,3.9494,3.9492,3.9677,3.9696,3.9716,3.9864,3.978,3.979,3.9796,4.0145,4.0149,4.0152,0,0,0,0,0,0,3.9067,3.9098,3.9366,3.9249,3.9283,3.9368,3.9437,3.945,3.9496,3.9586,3.96,3.9526,3.9675,3.9701,3.9822,3.9872,3.9795,3.9804,4.0141,4.0146,4.0151,4.0163,0,0,0,0,0,0,3.9057,3.9095,3.9144,3.925,3.9289,3.947,3.944,3.9455,3.9514,3.9514,3.9619,3.9634,3.9675,3.9806,3.9832,3.9885,3.9812,4.0137,4.0143,4.0149,4.0159,4.0168,4.0176,0,0,0,0,0,3.9044,3.9139,3.9146,3.9177,3.9351,3.9473,3.9495,3.9542,3.9518,3.9566,3.9624,3.9631,3.9862,3.9818,3.9848,3.9904,4.0134,4.0141,4.0149,4.0155,4.0166,4.0176,0,0,0,0,0,0,3.9035,3.9153,3.9163,3.9295,3.9374,3.9477,3.9539,3.9552,3.9639,3.9634,3.9687,3.9711,3.9829,3.9879,3.9828,4.0027,3.9996,4.0009,3.999,4.0002,4.001,3.9995,3.9821,0,0,0,0,0,3.9049,3.9139,3.9237,3.9344,3.9383,3.9454,3.9509,3.9538,3.9621,3.9654,3.9721,3.98,3.989,3.9949,4.0037,4.0166,4.0188,4.0219,4.0228,4.0234,4.0245,4.0315,4.033,4.0176,4.0176,4.0176,0,0,3.9077,3.9153,3.9206,3.9344,3.9408,3.9499,3.9482,3.9579,3.9646,3.9668,3.9787,3.9838,3.993,4.0055,4.0114,4.01,4.0293,4.0244,4.0248,4.0256,4.0324,4.0339,4.0352,4.0181,4.018,4.0179,0,0,3.9176,3.9243,3.9339,3.9404,3.9502,3.9548,3.9571,3.9673,3.9708,3.9828,3.9846,3.9926,4.0081,4.0146,4.0199,4.032,4.0329,4.0347,4.0391,4.0459,4.0471,4.0482,4.0524,4.0539,4.0358,4.0358,4.0358,0,3.9198,3.9337,3.9386,3.9482,3.9541,3.9567,3.9663,3.9723,3.9845,3.9884,3.9868,4.0062,4.0126,4.0266,4.0295,4.0338,4.0364,4.0335,4.0466,4.0477,4.0488,4.0529,4.0545,4.0359,4.0359,4.0359,4.0359,0,3.9359,3.9455,3.952,3.9638,3.9704,3.98,3.9862,3.9923,3.9946,3.9994,4.0114,4.0192,4.0295,4.0331,4.0354,4.0474,4.0462,4.0455,4.0425,4.0504,4.0542,4.0559,4.0361,4.0361,4.0361,4.036,0,0,3.9457,3.96,3.9623,3.9676,3.9786,3.986,3.9956,4.0059,4.011,4.0192,4.0273,4.0403,4.0397,4.0457,4.0488,4.0548,4.0637,4.0533,4.0536,4.0549,4.0772,4.0775,4.0793,4.0644,4.0647,4.065,4.0763,0,3.9567,3.9741,3.9787,3.9933,4.0021,4.0046,4.013,4.0205,4.0252,4.0332,4.0383,4.0475,4.0461,4.0497,4.0557,4.0613,4.0682,4.0606,4.0718,4.0721,4.0693,4.0813,4.0818,4.0922,4.0779,4.0782,4.0784,0,3.9719,3.9805,3.996,4.0058,4.0096,4.0171,4.0268,4.0345,4.043,4.046,4.0526,4.0551,4.065,4.0615,4.0751,4.0698,4.0747,4.0781,4.0786,4.0798,4.0756,4.0827,4.0956,4.0971,4.0808,4.0806,4.0805,0,3.9773,3.9928,4.0041,4.0085,4.0202,4.0254,4.0304,4.0387,4.0445,4.053,4.0568,4.0662,4.0713,4.0785,4.0834,4.0804,4.0966,4.0935,4.0992,4.099,4.1024,4.1021,4.1162,4.1057,4.1057,4.1056,4.1056,0,3.989,3.9984,4.0066,4.0136,4.0241,4.0292,4.0395,4.0446,4.0519,4.0597,4.0625,4.0697,4.0758,4.0838,4.0877,4.0983,4.1007,4.1032,4.1041,4.1029,4.1026,4.1061,4.1055,4.1061,4.106,4.1059,4.1058,0,3.9968,4.0027,4.0152,4.0252,4.0279,4.0352,4.0438,4.0505,4.0552,4.0651,4.0677,4.0752,4.0847,4.0904,4.1024,4.105,4.1168,4.1174,4.1139,4.1143,4.1196,4.119,4.1364,4.1389,4.1268,4.1269,4.127,0,4.0038,4.0111,4.0219,4.0274,4.0326,4.0414,4.0474,4.0527,4.0588,4.069,4.0745,4.0843,4.0924,4.1075,4.1139,4.1231,4.1239,4.1294,4.1253,4.1238,4.1238,4.1233,4.124,4.13,4.1301,4.1302,4.1303,0,4.0156,4.0182,4.0268,4.0364,4.0434,4.0512,4.0589,4.0632,4.0698,4.0765,4.0864,4.0927,4.105,4.1146,4.1244,4.1294,4.1309,4.1315,4.1333,4.1321,4.1297,4.131,4.1157,4.1311,4.131,4.1309,4.1309,4.1309,4.0232,4.0297,4.0384,4.0478,4.0541,4.0613,4.0681,4.0737,4.0821,4.0926,4.0952,4.1056,4.1138,4.127,4.1323,4.1404,4.1394,4.1421,4.1427,4.1432,4.1433,4.1285,4.1422,4.1422,4.1422,4.1421,4.1421,0,4.035,4.0407,4.0493,4.0601,4.0674,4.0683,4.0769,4.0829,4.092,4.0996,4.1076,4.1188,4.1282,4.1353,4.1448,4.1498,4.1507,4.1521,4.1518,4.1529,4.1437,4.1411,4.1512,4.1512,4.1512,4.1512,4.1512,4.1512,4.042,4.0531,4.0567,4.0708,4.0764,4.0867,4.0915,4.098,4.1041,4.1166,4.1244,4.129,4.1364,4.1464,4.1549,4.1568,4.1601,4.1614,4.1633,4.1545,4.1535,4.1526,4.1502,4.1621,4.1621,4.1718,4.1719,4.1719]}]]